Location: Blankensee
(53.5126°N, 14.3055°E)
Time: 18:55:57
(UTC+00:00)

Okean 1 Rocket - Pass Details

Date: 08 August 2020
Orbit: 607 x 634 km, 82.5° (Epoch: 20 September)

Event Time Altitude Azimuth Distance (km) Brightness Sun altitude
Exits shadow 01:18:56 26° 212° (SSW) 1,200 3.9 -15.0°
Maximum altitude 01:21:13 61° 284° (WNW) 695 3.2 -14.8°
Drops below altitude 10° 01:25:34 10° 6° (N) 1,983 6.6 -14.5°
Sets 01:27:51 0° 10° (N) 2,897 7.8 -14.3°
